NOAA 15 (25338 NORAD) Tracking and Keplerian Element Data

This shows tracking and keplerian element data for the satellite.

Feedback or suggestion? Click here.




ElementValue
Catalog25338
NameNOAA 15
Epoch Orbit26777
Epoch Day270.21960016
Epoch Year2022
RAAN298.3941
Inclination98.6378
Eccentricity0.001037
Argument of Perigee7.4546
Mean Anonmoly352.6787
Mean Motion14.2617415
Decay Rate1.11E-06
L11 25338U 98030A 22270.21960016 .00000111 00000+0 64411-4 0 9991
L22 25338 98.6378 298.3941 0010370 7.4546 352.6787 14.26174150267775

Live tracking and technical data element details for NOAA 15 (NORAD 25338). NOAA 15 can be tracked NOW for your location showing map with azimuth and elevation plus other details from your city location.

Track the satellite on the map from your city or location and see movement details for azimuth, elevation, latitude, longitude, range, height, and movement on the map or in text.







IsCatalogInMostPopularTable: catalog: 25338, numindb: 646
Update: records affected: 1



GetName: 25338 NOAA 15

Hit Count: updated at: Fri, 30 Sep 2022 02:54:58 GMT